Stations météo

réclame
Mon MeteoGroup
Andrewsfield, Grande-Bretagne (3684): Température de l'air & dewpoint: 17.10.2019 16:00:00 - 23.10.2019 16:00:00 (BST)Andrewsfield, Grande-Bretagne (3684): Température de l'air -20cm & Température de l'air -100cm: 17.10.2019 16:00:00 - 23.10.2019 16:00:00 (BST)Andrewsfield, Grande-Bretagne (3684): Vitesse du vent & gusts: 17.10.2019 16:00:00 - 23.10.2019 16:00:00 (BST)Andrewsfield, Grande-Bretagne (3684): Direction du vent: 17.10.2019 16:00:00 - 23.10.2019 16:00:00 (BST)Andrewsfield, Grande-Bretagne (3684): reduced air pressure: 17.10.2019 16:00:00 - 23.10.2019 16:00:00 (BST)Andrewsfield, Grande-Bretagne (3684): visibility: 17.10.2019 16:00:00 - 23.10.2019 16:00:00 (BST)Andrewsfield, Grande-Bretagne (3684): Quantités de précipitations: 17.10.2019 16:00:00 - 23.10.2019 16:00:00 (BST)
Date & Time tt [°C] td [°C] tt -20cm [°C] tt -100cm [°C] ff [km/h] ff [knt] fx [km/h] fx [knt] dd ppp [hPa] vv [km] rr [mm]
23.10.2019 16:00:00 13,6 10,2 - - 15 8 - - ESE 1010,6 40 0,0
23.10.2019 15:00:00 14,0 10,5 - - 15 8 - - SE 1011,1 40 0,0
23.10.2019 14:00:00 14,0 10,4 - - 15 8 - - ESE 1012,5 50 0,0
23.10.2019 13:00:00 12,3 10,3 - - 9 5 - - ENE 1013,8 27 0,0
23.10.2019 12:00:00 11,2 9,4 - - 11 6 - - E 1014,8 29 0,0
23.10.2019 11:00:00 10,6 9,5 - - 9 5 - - E 1015,5 26 0,0
23.10.2019 10:00:00 9,1 9,1 11,0 13,2 8 4 - - E 1016,5 18 0,0
23.10.2019 09:00:00 5,8 5,8 - - 8 4 - - NE 1017,1 9 0,0
23.10.2019 08:00:00 4,3 4,3 - - 8 4 - - ENE 1017,6 7 0,0
23.10.2019 07:00:00 3,2 3,2 - - 4 2 - - NE 1018,0 5 0,0
23.10.2019 06:00:00 2,9 2,9 - - 4 2 - - E 1018,6 9 0,2
23.10.2019 05:00:00 3,2 3,1 - - 5 3 - - E 1019,1 0,5 0,0
23.10.2019 04:00:00 3,8 3,7 - - 5 3 - - E 1019,7 1,8 0,0
23.10.2019 03:00:00 3,9 3,8 - - 4 2 - - N 1020,4 0,7 0,0
23.10.2019 02:00:00 4,5 4,2 - - 4 2 - - ESE 1021,0 0,1 0,0
23.10.2019 01:00:00 6,2 5,8 - - 4 2 - - S 1021,5 4,8 0,0
23.10.2019 00:00:00 7,3 6,8 - - 5 3 - - S 1022,0 16 0,0
22.10.2019 23:00:00 7,8 6,5 - - 5 3 - - S 1022,3 24 0,0
22.10.2019 22:00:00 7,9 6,3 - - 5 3 - - SSE 1022,2 23 0,0
22.10.2019 21:00:00 8,4 6,0 - - 5 3 - - SSE 1022,2 35 0,0
22.10.2019 20:00:00 8,9 6,1 - - 5 3 - - S 1022,5 40 0,0
22.10.2019 19:00:00 8,4 6,3 - - 5 3 - - SSE 1022,7 70 0,0
22.10.2019 18:00:00 10,7 5,9 - - 2 1 - - SW 1022,5 75 0,0
22.10.2019 17:00:00 12,9 6,4 - - 11 6 - - WSW 1022,5 75 0,0
22.10.2019 16:00:00 13,6 6,7 - - 9 5 - - WSW 1022,6 30 0,0
22.10.2019 15:00:00 13,6 6,7 - - 13 7 - - WSW 1023,0 70 0,0
22.10.2019 14:00:00 12,7 6,1 - - 16 9 - - WSW 1023,5 75 0,0
22.10.2019 13:00:00 11,8 5,6 - - 15 8 - - W 1024,1 75 0,0
22.10.2019 12:00:00 11,2 8,7 - - 13 7 - - W 1024,1 18 0,0
22.10.2019 11:00:00 9,9 8,6 - - 13 7 - - WSW 1024,5 15 0,0
22.10.2019 10:00:00 8,6 8,6 11,4 13,4 5 3 - - W 1024,6 6 0,0
22.10.2019 09:00:00 7,7 7,7 - - 4 2 - - SSW 1024,3 6 0,0
22.10.2019 08:00:00 6,8 6,8 - - 5 3 - - W 1023,5 3,9 0,0
22.10.2019 07:00:00 6,8 6,8 - - 4 2 - - W 1023,2 5 0,0
22.10.2019 06:00:00 6,6 6,5 - - 4 2 - - W 1023,0 3,1 0,0
22.10.2019 05:00:00 6,6 6,4 - - 4 2 - - WNW 1022,9 4,7 0,0
22.10.2019 04:00:00 7,4 7,1 - - 5 3 - - WNW 1022,4 7 0,0
22.10.2019 03:00:00 7,9 7,4 - - 4 2 - - N 1022,4 12 0,0
22.10.2019 02:00:00 8,8 8,1 - - 8 4 - - NNW 1022,4 17 0,0
22.10.2019 01:00:00 9,3 8,4 - - 8 4 - - NNW 1022,6 22 0,0
22.10.2019 00:00:00 9,5 8,5 - - 9 5 - - NNW 1022,4 22 0,0
21.10.2019 23:00:00 9,7 8,7 - - 11 6 - - NNW 1022,4 25 0,0
21.10.2019 22:00:00 9,8 8,8 - - 11 6 - - NNW 1021,8 27 0,0
21.10.2019 21:00:00 10,0 8,9 - - 13 7 - - NNW 1021,2 35 0,0
21.10.2019 20:00:00 10,3 9,0 - - 11 6 - - NNW 1020,9 35 0,0
21.10.2019 19:00:00 10,6 9,2 - - 11 6 - - NNW 1020,6 35 0,0
21.10.2019 18:00:00 10,8 9,6 - - 13 7 - - NNW 1019,6 29 0,0
21.10.2019 17:00:00 10,9 10,0 - - 13 7 - - NNW 1019,3 23 0,4
21.10.2019 16:00:00 11,0 10,2 - - 15 8 - - N 1019,2 26 0,0
21.10.2019 15:00:00 11,9 9,9 - - 16 9 - - N 1018,7 23 0,0
21.10.2019 14:00:00 11,8 10,1 - - 21 11 - - N 1018,2 30 0,0
21.10.2019 13:00:00 11,6 10,2 - - 15 8 - - N 1018,1 40 0,0
21.10.2019 12:00:00 11,4 10,4 - - 16 9 - - N 1017,6 29 0,4
21.10.2019 11:00:00 11,0 10,0 - - 21 11 - - N 1017,4 17 0,0
21.10.2019 10:00:00 10,7 10,0 11,2 13,5 15 8 - - N 1016,8 35 0,4
21.10.2019 09:00:00 10,4 9,3 - - 13 7 - - N 1016,3 40 0,0
21.10.2019 08:00:00 10,4 9,3 - - 16 9 - - N 1015,4 50 0,0
21.10.2019 07:00:00 10,3 9,3 - - 15 8 - - N 1014,7 50 0,0
21.10.2019 06:00:00 10,1 9,4 - - 15 8 - - N 1014,5 45 0,0
21.10.2019 05:00:00 10,0 9,4 - - 16 9 - - N 1014,1 35 0,2
21.10.2019 04:00:00 9,9 9,3 - - 16 9 - - N 1014,0 6 1,0
21.10.2019 03:00:00 10,1 9,2 - - 16 9 - - NNE 1013,9 13 0,4
21.10.2019 02:00:00 10,2 9,0 - - 18 10 - - N 1014,1 45 0,0
21.10.2019 01:00:00 10,0 9,1 - - 16 9 - - N 1014,0 35 0,0
21.10.2019 00:00:00 9,9 9,0 - - 15 8 - - N 1014,1 35 0,0
20.10.2019 23:00:00 9,7 8,7 - - 13 7 - - NNE 1013,5 40 0,0
20.10.2019 22:00:00 8,8 8,5 - - 9 5 - - N 1013,4 21 0,0
20.10.2019 21:00:00 8,7 8,2 - - 9 5 - - N 1013,0 21 0,0
20.10.2019 20:00:00 8,9 8,1 - - 8 4 - - N 1012,9 26 0,0
20.10.2019 19:00:00 9,8 8,5 - - 11 6 - - N 1012,6 55 0,0
20.10.2019 18:00:00 10,2 8,5 - - 9 5 - - N 1012,0 18 0,0
20.10.2019 17:00:00 10,8 8,4 - - 9 5 - - N 1011,7 65 0,0
20.10.2019 16:00:00 10,6 8,5 - - 11 6 - - N 1011,0 50 0,0
20.10.2019 15:00:00 10,6 8,4 - - 9 5 - - N 1010,9 50 0,0
20.10.2019 14:00:00 10,2 7,8 - - 13 7 - - N 1010,6 55 0,0
20.10.2019 13:00:00 9,9 8,2 - - 13 7 - - N 1010,6 40 0,0
20.10.2019 12:00:00 9,2 7,8 - - 11 6 - - N 1010,5 29 0,0
20.10.2019 11:00:00 8,1 7,3 - - 9 5 - - N 1010,1 28 0,0
20.10.2019 10:00:00 6,7 6,2 11,7 13,7 9 5 - - NNW 1009,8 26 0,0
20.10.2019 09:00:00 6,3 5,7 - - 8 4 - - N 1009,2 28 0,0
20.10.2019 08:00:00 5,5 5,4 - - 8 4 - - NNW 1008,3 14 0,0
20.10.2019 07:00:00 5,5 5,3 - - 5 3 - - N 1007,9 10 0,0
20.10.2019 06:00:00 5,4 5,3 - - 4 2 - - NNW 1007,8 10 0,0
20.10.2019 05:00:00 5,4 5,4 - - 5 3 - - NNW 1006,8 12 0,2
20.10.2019 04:00:00 3,6 3,4 - - 8 4 - - W 1006,7 0,1 0,0
20.10.2019 03:00:00 4,6 4,3 - - 8 4 - - W 1006,3 9 0,0
20.10.2019 02:00:00 5,3 5,0 - - 8 4 - - W 1006,0 21 0,0
20.10.2019 01:00:00 5,1 4,7 - - 9 5 - - WSW 1005,9 8 0,0
20.10.2019 00:00:00 5,7 5,0 - - 11 6 - - WSW 1005,5 20 0,0
19.10.2019 23:00:00 7,1 6,1 - - 8 4 - - SW 1004,9 45 0,0
19.10.2019 22:00:00 7,4 6,3 - - 8 4 - - WSW 1004,4 40 0,0
19.10.2019 21:00:00 8,1 6,8 - - 8 4 - - WSW 1003,6 60 0,0
19.10.2019 20:00:00 8,6 6,9 - - 8 4 - - SW 1003,0 65 0,0
19.10.2019 19:00:00 9,7 7,1 - - 4 2 - - SW 1002,5 75 0,0
19.10.2019 18:00:00 11,4 7,9 - - 9 5 - - WSW 1001,8 75 0,0
19.10.2019 17:00:00 13,1 8,2 - - 11 6 - - WSW 1001,1 75 0,0
19.10.2019 16:00:00 13,2 7,6 - - 18 10 - - WSW 1000,7 75 0,0
19.10.2019 15:00:00 14,2 8,0 - - 22 12 - - WSW 1000,2 75 0,0
19.10.2019 14:00:00 13,0 7,0 - - 24 13 - - WSW 1000,0 75 0,0
19.10.2019 13:00:00 13,2 7,5 - - 24 13 - - WSW 999,7 75 0,0
19.10.2019 12:00:00 12,9 8,4 - - 22 12 - - SW 999,5 70 0,0
19.10.2019 11:00:00 12,2 9,3 - - 22 12 - - SW 999,4 55 0,0
19.10.2019 10:00:00 11,0 9,2 12,0 13,7 16 9 - - SSW 999,1 35 0,0
19.10.2019 09:00:00 9,5 8,6 - - 13 7 - - SSW 999,0 30 0,0
19.10.2019 08:00:00 9,1 8,3 - - 11 6 - - SSW 998,3 30 0,0
19.10.2019 07:00:00 9,2 8,2 - - 15 8 - - SSW 998,0 35 0,0
19.10.2019 06:00:00 9,4 8,5 - - 13 7 - - SSW 998,2 30 0,0
19.10.2019 05:00:00 9,7 8,5 - - 11 6 - - S 998,2 35 0,0
19.10.2019 04:00:00 9,9 8,6 - - 11 6 - - SSW 998,6 30 0,0
19.10.2019 03:00:00 9,7 8,3 - - 11 6 - - S 998,9 35 0,0
19.10.2019 02:00:00 9,9 8,1 - - 11 6 - - S 999,0 30 0,0
19.10.2019 01:00:00 10,1 8,4 - - 9 5 - - S 999,0 25 0,0
19.10.2019 00:00:00 10,3 7,9 - - 11 6 - - SSW 999,3 30 0,0
18.10.2019 23:00:00 10,3 8,1 - - 9 5 - - S 999,4 23 0,0
18.10.2019 22:00:00 11,2 8,0 - - 15 8 - - SSW 999,6 30 0,0
18.10.2019 21:00:00 11,1 7,9 - - 21 11 - - SSW 999,6 29 0,0
18.10.2019 20:00:00 11,1 8,2 - - 16 9 - - SSW 999,7 26 0,0
18.10.2019 19:00:00 11,5 7,9 - - 21 11 - - SSW 999,7 30 0,0
18.10.2019 18:00:00 12,3 7,9 - - 28 15 48 26 SW 999,6 30 0,0
18.10.2019 17:00:00 13,5 7,4 - - 35 19 48 26 WSW 999,4 35 0,0
18.10.2019 16:00:00 13,2 8,4 - - 29 16 50 27 SW 999,3 45 0,0
18.10.2019 15:00:00 13,1 8,3 - - 34 18 54 29 SW 999,3 45 0,8
18.10.2019 14:00:00 12,7 8,6 - - 29 16 48 26 WSW 999,2 16 0,0
18.10.2019 13:00:00 14,0 8,3 - - 31 17 50 27 SW 999,3 45 0,0
18.10.2019 12:00:00 12,9 8,6 - - 29 16 46 25 WSW 999,5 70 0,0
18.10.2019 11:00:00 11,6 8,9 - - 26 14 - - WSW 999,4 70 0,0
18.10.2019 10:00:00 10,1 8,7 12,4 13,9 24 13 - - WSW 998,9 75 0,0
18.10.2019 09:00:00 9,6 8,7 - - 24 13 - - WSW 998,2 65 0,0
18.10.2019 08:00:00 9,4 8,6 - - 22 12 - - SW 997,2 65 0,0
18.10.2019 07:00:00 9,2 8,5 - - 9 5 - - S 996,8 75 0,0
18.10.2019 06:00:00 9,5 9,0 - - 11 6 - - SSE 997,6 50 0,0
18.10.2019 05:00:00 9,8 8,9 - - 9 5 - - S 998,2 75 1,8
18.10.2019 04:00:00 10,4 9,6 - - 11 6 - - S 999,0 45 1,4
18.10.2019 03:00:00 10,6 9,8 - - 15 8 - - SSE 999,8 45 0,0
18.10.2019 02:00:00 10,5 9,3 - - 9 5 - - S 1001,0 70 0,0
18.10.2019 01:00:00 10,5 9,7 - - 9 5 - - S 1001,9 45 0,0
18.10.2019 00:00:00 9,9 9,2 - - 9 5 - - SSE 1002,4 45 0,0
17.10.2019 23:00:00 10,2 9,4 - - 9 5 - - S 1002,9 45 0,0
17.10.2019 22:00:00 9,6 9,1 - - 13 7 - - SE 1003,6 55 0,0
17.10.2019 21:00:00 10,4 9,1 - - 8 4 - - S 1004,0 75 0,0
17.10.2019 20:00:00 11,5 10,0 - - 16 9 - - S 1004,3 65 0,0
17.10.2019 19:00:00 11,6 10,2 - - 8 4 - - S 1004,4 40 0,0
17.10.2019 18:00:00 12,0 10,2 - - 11 6 - - S 1004,4 55 0,0
17.10.2019 17:00:00 12,9 10,4 - - 16 9 - - SSW 1004,3 60 0,0
17.10.2019 16:00:00 13,3 10,6 - - 16 9 - - S 1004,3 75 0,0

tt = Température de l'air
td = dewpoint
tt -20cm = Température de l'air -20cm
tt -100cm = Température de l'air -100cm
ff = Vitesse du vent
fx = gusts
dd = Direction du vent
ppp = reduced air pressure
vv = visibility
rr = Quantités de précipitations

stations d'obs. à proximité